Location: Zilina
(0.0000°N, 18.7333°E)
Time: 12:00:21
(UTC+01:00)

NOSS 3-1 (A) - Pass Details

Date: 19 February 2019
Orbit: 790 x 1423 km, 63.4° (Epoch: 11 February)

Event Time Altitude Azimuth Distance (km) Brightness Sun altitude
Rises 19:07:36 0° 345° (NNW) 4,365 6.9 -16.8°
Reaches altitude 10° 19:10:28 10° 348° (NNW) 3,442 6.3 -17.5°
Maximum altitude 19:18:58 63° 68° (ENE) 1,563 4.2 -19.6°
Drops below altitude 10° 19:27:31 10° 147° (SSE) 3,468 6.1 -21.7°
Sets 19:30:24 0° 150° (SSE) 4,400 6.7 -22.4°
